Flag for U.S.A. Weather past 2 weeks in Corvallis, Oregon, U.S.A.

Now
57 °F

Mostly cloudy.


Feels Like: 57 °F
Forecast: 58 / 71 °F
Wind: 3 mph from West

Location: Corvallis Municipal

Current Time: Sep 18, 2014 at 7:07:19 AM

Latest Report: Sep 18, 2014 at 6:35 AM


Visibility: 10 mi

Pressure: 29.79 "Hg

Humidity: 94%

Dew point: 55 °F

Location of CorvallisLocation

Historic Weather in Corvallis — Graph

°F

Corvallis temperature yesterday

Maximum temperature yesterday: 72 °F (at 1:35 PM)
Minimum temperature yesterday: 55 °F (at 6:35 AM)
Average temperature yesterday: 64 °F

Past Weeks' High & Low Weather Summary

 TemperatureHumidityPressure
High97 °F (Sep 6, 3:55 PM)100% (Sep 10, 7:35 AM)30.18 "Hg (Sep 10, 7:35 AM)
Low41 °F (Sep 12, 7:15 AM)12% (Sep 6, 3:55 PM)29.73 "Hg (Sep 17, 12:15 PM)
Average65 °F55%29.93 "Hg
* Reported Sep 3 5:35 AM — Sep 18 5:55 AM, Corvallis, Weather by CustomWeather, © 2014

Note: Actual official high and low records may vary slightly from our data, if they occured in-between our weather recording intervals... More about our weather records

Advertising

Corvallis weather history for previous 24 hours

 ConditionsComfort  
Time TempWeatherWind HumidityBarometerVisibility
5:55 AM
Sep 18
61 °FOvercast.5 mph83%29.77 "Hg10 mi
5:35 AM59 °FMostly cloudy.5 mph88%29.78 "Hg10 mi
4:55 AM61 °FPartly cloudy.5 mph83%29.76 "Hg10 mi
4:35 AM61 °FPartly cloudy.7 mph83%29.76 "Hg10 mi
4:15 AM61 °FPassing clouds.5 mph83%29.76 "Hg10 mi
3:55 AM61 °FPassing clouds.7 mph83%29.76 "Hg10 mi
3:35 AM61 °FMostly cloudy.7 mph83%29.75 "Hg10 mi
3:15 AM61 °FMostly cloudy.8 mph83%29.75 "Hg10 mi
2:55 AM61 °FOvercast.6 mph83%29.75 "Hg10 mi
2:35 AM61 °FOvercast.No wind83%29.75 "Hg10 mi
1:55 AM61 °FPartly cloudy.10 mph83%29.75 "Hg10 mi
1:35 AM61 °FPassing clouds.12 mph83%29.75 "Hg10 mi
12:55 AM61 °FOvercast.7 mph83%29.75 "Hg10 mi
12:35 AM61 °FOvercast.3 mph83%29.76 "Hg10 mi
12:15 AM61 °FOvercast.6 mph83%29.76 "Hg10 mi
11:55 PM
Sep 17
61 °FPassing clouds.5 mph83%29.76 "Hg10 mi
11:35 PM61 °FOvercast.No wind83%29.76 "Hg10 mi
11:15 PM61 °FPassing clouds.No wind88%29.76 "Hg10 mi
10:55 PM61 °FPassing clouds.3 mph83%29.76 "Hg10 mi
10:35 PM61 °FPassing clouds.No wind83%29.76 "Hg10 mi
10:15 PM63 °FPassing clouds.No wind77%29.76 "Hg10 mi
9:55 PM61 °FPassing clouds.6 mph88%29.75 "Hg10 mi
9:35 PM63 °FPassing clouds.No wind77%29.76 "Hg10 mi
9:15 PM63 °FPassing clouds.No wind73%29.77 "Hg10 mi
8:55 PM63 °FPassing clouds.No wind77%29.77 "Hg10 mi
8:35 PM63 °FPassing clouds.3 mph77%29.78 "Hg10 mi
8:15 PM64 °FPartly sunny.6 mph73%29.77 "Hg10 mi
7:55 PM64 °FPassing clouds.8 mph73%29.76 "Hg10 mi
7:35 PM64 °FPartly sunny.9 mph73%29.75 "Hg10 mi
7:15 PM64 °FPartly sunny.7 mph73%29.75 "Hg10 mi
6:55 PM66 °FOvercast.3 mph68%29.76 "Hg10 mi
6:35 PM66 °FPartly sunny.3 mph68%29.74 "Hg10 mi
6:15 PM66 °FSunny.7 mph68%29.75 "Hg10 mi
5:55 PM66 °FSunny.6 mph68%29.76 "Hg10 mi
5:35 PM68 °FSunny.8 mph64%29.75 "Hg10 mi
5:15 PM68 °FSunny.5 mph64%29.75 "Hg10 mi
4:55 PM68 °FBroken clouds.13 mph69%29.73 "Hg10 mi
4:35 PM70 °FMore clouds than sun.10 mph64%29.73 "Hg10 mi
4:15 PM70 °FMostly cloudy.5 mph64%29.75 "Hg10 mi
3:55 PM72 °FMore clouds than sun.No wind61%29.75 "Hg10 mi
3:35 PM72 °FOvercast.No wind61%29.75 "Hg10 mi
3:15 PM72 °FOvercast.3 mph57%29.74 "Hg10 mi
2:55 PM72 °FPartly sunny.3 mph57%29.74 "Hg10 mi
2:35 PM72 °FSunny.5 mph57%29.74 "Hg10 mi
2:15 PM72 °FSunny.No wind57%29.74 "Hg10 mi
1:55 PM72 °FSunny.No wind57%29.74 "Hg10 mi
1:35 PM72 °FSunny.3 mph57%29.75 "Hg10 mi
1:15 PM70 °FSunny.5 mph57%29.75 "Hg10 mi
12:55 PM70 °FSunny.5 mph60%29.75 "Hg10 mi
12:35 PM70 °FSunny.No wind60%29.74 "Hg10 mi
12:15 PM70 °FSunny.No wind60%29.73 "Hg10 mi
11:55 AM68 °FSunny.3 mph64%29.75 "Hg10 mi
11:35 AM68 °FSunny.No wind64%29.75 "Hg10 mi
10:55 AM66 °FSunny.3 mph68%29.76 "Hg10 mi
10:35 AM64 °FSunny.8 mph73%29.77 "Hg10 mi
10:15 AM64 °FSunny.No wind68%29.76 "Hg10 mi
9:55 AM64 °FSunny.3 mph68%29.76 "Hg10 mi
9:35 AM63 °FSunny.3 mph73%29.75 "Hg10 mi
9:15 AM63 °FSunny.No wind73%29.76 "Hg10 mi
8:55 AM61 °FPassing clouds.3 mph77%29.77 "Hg10 mi
8:35 AM61 °FSunny.No wind77%29.76 "Hg10 mi
8:15 AM57 °FSunny.No wind82%29.76 "Hg10 mi
7:55 AM57 °FPassing clouds.No wind82%29.76 "Hg10 mi
7:35 AM55 °FPassing clouds.3 mph88%29.76 "Hg10 mi
7:15 AM55 °FPassing clouds.3 mph88%29.76 "Hg10 mi
Weather by CustomWeather, © 2014

See weather overviewHow to use our weather pages